Hourly Data Report for June 12, 2021

QUALICUM BEACH AIRPORT
BRITISH COLUMBIA
Current Station Operator: ECCC - MSC

49°20'14.000" N
124°23'38.000" W
58.20 m
1026562
71766
VOQ

Download Data

Hourly Data (June 2021)
Hourly Data Report for June 12, 2021
TIME
LST
Temp Definition
°C
Dew Point Definition
°C
Rel Hum Definition
%
Precip. Amount Definition
mm

Wind Dir Definition
10's deg

Wind Spd Definition
km/h
Visibility Definition
km
Stn Press Definition
kPa
Hmdx Definition


Wind Chill Definition


Weather Definition


00:00 10.6 9.1 90 0.0 8 2   100.64     LegendNANA
01:00 9.0 8.0 93 0.0 0 1   100.64     LegendNANA
02:00 8.7 7.8 94 0.0 15 7   100.66     LegendNANA
03:00 8.8 7.6 92 0.0 16 4   100.69     LegendNANA
04:00 10.1 7.9 86 0.0 11 2   100.71     LegendNANA
05:00 10.1 8.0 87 0.0 18 5   100.76     LegendNANA
06:00 12.1 8.7 79 0.0 13 5   100.79     LegendNANA
07:00 13.8 9.0 73 0.0 13 12   100.84     LegendNANA
08:00 14.1 10.0 76 0.0 11 10   100.88     LegendNANA
09:00 15.1 10.1 72 0.0 12 14   100.91     LegendNANA
10:00 14.8 10.7 76 0.2 9 17   100.93     LegendNANA
11:00 15.6 10.8 73 0.7 10 16   100.89     LegendNANA
12:00 16.8 9.8 63 0.4 13 19   100.92     LegendNANA
13:00 16.6 9.9 65 0.1 9 16   100.86     LegendNANA
14:00 17.4 7.7 53 0.3 10 15   100.81     LegendNANA
15:00 17.4 7.4 52 0.3 9 17   100.72     LegendNANA
16:00 17.5 8.7 56 0.2 10 11   100.66     LegendNANA
17:00 17.9 7.5 51 0.1 12 10   100.58     LegendNANA
18:00 17.6 7.9 53 0.0 10 6   100.49     LegendNANA
19:00 15.9 9.6 67 0.0 3 2   100.42     LegendNANA
20:00 14.3 10.0 75 0.0 33 8   100.38     LegendNANA
21:00 13.7 10.6 81 0.0 29 4   100.31     LegendNANA
22:00 12.7 10.8 88 0.4 23 4   100.34     LegendNANA
23:00 12.5 11.0 90 1.0 22 3   100.36     LegendNANA

Notes on Data Quality.

Legend

  • E = Estimated
  • M = Missing
  • NA = Not Available*
  • [empty] = Indicates an unobserved value
Date modified: